Location: Plainartige
(45.6866°N, 1.7993°E)
Time: 12:22:04
(UTC+00:00)

N. Korean satellite - Visible Passes

Search period start: 22 January 2022 00:00
Search period end: 01 February 2022 00:00
Orbit: 447 x 491 km, 97.3° (Epoch: 21 January)

Date Brightness Start Highest point End Pass type
(mag) Time Alt. Az. Time Alt. Az. Time Alt. Az.
22 Jan 8.7 04:38:01 10° NNE 04:40:04 25° ENE 04:40:04 25° ENE visible
22 Jan 7.9 06:11:36 10° NNW 06:14:08 19° WNW 06:14:08 19° WNW visible
23 Jan 9.7 04:09:48 10° NE 04:10:58 14° ENE 04:10:58 14° ENE visible
23 Jan 7.0 05:41:51 10° N 05:45:03 39° WNW 05:45:03 39° WNW visible
24 Jan 6.5 05:12:32 10° NNE 05:15:57 77° NNE 05:15:57 77° NNE visible
24 Jan 9.9 17:23:18 10° WSW 17:25:05 13° W 17:26:52 10° WNW visible
25 Jan 8.1 04:43:33 10° NNE 04:46:52 37° E 04:46:52 37° E visible
25 Jan 8.1 06:17:25 10° NNW 06:19:49 17° WNW 06:20:56 15° W visible
26 Jan 9.4 04:15:06 10° NE 04:17:35 17° E 04:17:47 17° E visible
26 Jan 7.2 05:47:31 10° N 05:50:51 34° WNW 05:51:51 28° WSW visible
27 Jan 6.4 05:18:04 10° N 05:21:44 79° WNW 05:22:47 44° SSW visible
27 Jan 10.1 17:29:22 10° WSW 17:30:38 12° W 17:31:56 10° WNW visible
28 Jan 7.7 04:48:59 10° NNE 04:52:29 43° E 04:53:43 31° SSE visible
28 Jan 8.3 06:23:09 10° NNW 06:25:16 15° WNW 06:27:23 10° W visible
29 Jan 9.2 04:20:21 10° NE 04:23:06 20° E 04:24:41 15° SE visible
29 Jan 7.4 05:53:03 10° N 05:56:16 30° WNW 05:58:45 14° SW visible
30 Jan 6.4 05:23:30 10° N 05:27:08 67° WNW 05:29:46 17° SSW visible
30 Jan 10.5 17:35:53 10° W 17:36:05 10° W 17:36:16 10° W visible
31 Jan 7.4 04:54:18 10° NNE 04:57:52 50° E 05:00:52 14° S visible
31 Jan 8.4 06:28:49 10° NW 06:30:34 13° WNW 06:32:19 10° W visible
